Vertical_Velocity
-1 -0 -1 -1 -0 -2 -1 -1 -0 -1 -2 -3 -1 -3 -0 -2 1 1 -1 2 1 1 2 1 3 -0 -1 -5 4 4 2 2 3 0 3 3 0 2 1 2 -2 1 1 -1 -2 -3 2
-2 -2 -1 -2 -1 -2 -3 -4 -5 -3 -4 -4 -5 -2 -3 -4 0 -0 1 2 1 2 2 3 3 1 -2 2 -1 -2 3 3 3 1 2 1 3 6 1 -2 0 5 -3 0 2 2 -2
-2 -3 -2 -2 -2 -2 -1 -2 -2 -4 -5 -6 -6 -7 -7 -4 1 -0 -1 2 1 0 1 3 3 -3 -6 10 -3 2 -3 3 3 2 3 3 -2 -5 10 3 2 0 -1 0 1 -2 -3
-2 -2 -2 -2 -3 -2 -2 -2 -5 -6 -6 -9 -6 -7 -6 -4 -1 1 -1 -0 -0 -0 1 3 2 -4 6 -8 3 5 2 -2 1 3 2 -0 3 5 -1 -1 -0 -0 2 -2 -1 -1 -5
-1 -4 -1 -2 -3 -3 -4 -4 -5 -6 -7 -5 -5 -4 -5 -2 -2 2 2 1 1 -0 0 3 4 -2 3 13 7 -3 2 2 1 1 1 3 -0 5 7 3 3 -4 1 3 -4 1 -2
-3 -1 -2 -3 -3 -4 -4 -5 -5 -4 -4 -4 -5 -1 -0 -0 0 0 2 1 0 1 -0 2 3 3 4 -5 -1 7 1 0 5 1 -1 -1 1 2 -2 -5 -7 3 1 3 -1 4 1
-3 -2 -1 -4 -4 -3 -5 -5 -6 -6 -2 -0 0 1 -7 2 3 4 1 1 0 -6 5 -0 -0 -5 10 6 4 1 0 2 0 -2 1 4 -3 -4 10 5 10 5 4 5 5 -9 2
-1 -1 -1 -4 -5 -5 -6 -4 -5 -4 -4 -1 3 5 -6 2 1 4 2 1 2 -3 3 0 0 3 6 4 3 1 -0 -3 -3 6 2 -8 -4 10 1 3 4 5 2 3 13 -7 2
-1 -2 -3 -3 -4 -4 -5 -6 -5 -6 -5 -2 1 2 1 1 1 1 3 1 1 -0 5 -3 -2 -1 2 -1 4 -2 -2 12 4 3 0 5 20 2 3 1 1 -1 2 3 9 -3 7
-1 -1 -2 -3 -6 -5 -6 -7 -6 -8 -5 -2 -1 0 1 -2 4 0 1 1 1 1 6 -1 -0 -7 -0 8 -8 4 6 11 -7 5 4 6 -0 2 -1 -0 5 -0 7 6 1 -7 -0
-3 -2 -3 -4 -3 -4 -6 -7 -8 -7 -5 -4 -2 -1 -2 1 2 2 2 -0 2 4 4 4 2 11 2 1 0 -7 8 -6 -1 8 -10 21 -1 2 -6 13 1 7 1 5 4 -3 7
-2 -1 -2 -3 -3 -4 -7 -6 -6 -6 -6 -6 -3 -3 -2 2 0 2 1 1 2 4 1 1 1 -4 5 3 9 -13 2 -3 17 0 1 3 3 -4 18 3 4 11 -2 2 -1 6 -18
-1 0 -1 -2 -3 -5 -7 -6 -5 -6 -5 -5 -4 -3 -4 -1 -1 1 2 2 0 3 4 -2 -2 4 2 7 6 -1 8 -4 -10 -8 -8 11 -4 3 -2 1 0 2 -2 4 -7 -15 0
-2 -1 -1 -3 -4 -5 -6 -5 -4 -5 -4 -4 -4 -4 -2 -3 -1 -2 -0 -0 0 5 -0 7 3 6 5 -6 5 3 1 -3 -2 4 10 0 -34 10 16 -4 16 1 -2 -6 -6 -10 5
-1 -2 -1 -3 -5 -4 -6 -6 -5 -6 -4 -4 -5 -5 -4 -2 -2 -1 -1 1 3 -1 4 2 4 5 4 6 7 3 5 8 10 6 -6 2 5 -6 -8 13 0 7 -52 43 8 1 2
-2 -2 -3 -4 -6 -4 -6 -5 -6 -4 -4 -3 -2 -3 -3 -4 -1 -2 0 3 1 -2 -3 2 4 3 0 -1 7 11 1 15 7 2 15 -0 4 -6 13 7 -11 -31 77 -11 -17 -8 -6
-2 -2 -2 -4 -4 -5 -6 -3 -3 -7 -3 -3 -2 -7 -3 -2 -2 -0 1 0 -1 1 -1 2 -3 0 -6 3 5 4 8 4 5 5 2 14 -3 6 5 -38 15 15 -15 -22 28 -1 -3
-2 -2 -3 -3 -4 -4 -5 -3 -2 -3 -5 -6 -4 -7 -3 -2 -0 -0 -1 -1 1 2 -0 -3 1 1 1 -2 6 7 13 -26 -15 2 -19 14 14 -1 -28 22 7 6 3 10 -25 -2 4
-3 -3 -3 -2 -3 -3 -5 -3 -3 -3 -1 -2 -2 -4 -4 -3 -2 -1 -0 -0 -1 0 2 0 -2 -1 -3 -1 1 2 4 -27 14 8 -16 3 -19 -5 8 6 -7 -42 -1 14 18 16 -15
-4 -6 -2 -0 -3 -2 -4 -6 -2 -2 -4 -4 -3 -2 -3 -5 -2 -2 -1 -1 -0 0 1 2 -0 1 3 -0 2 5 -1 -11 19 -9 11 3 17 -2 -4 5 52 22 -2 -1 14 -10 19
-3 -2 -0 -1 -3 -3 0 -6 -4 -2 -3 -3 -3 0 -2 -4 -3 -3 -1 -0 -0 -2 -0 2 3 -4 3 3 -1 4 -7 2 2 -2 5 -5 -6 -3 8 5 15 0 8 3 -7 -0 -17
-3 -2 -2 -2 -4 -4 -1 1 -5 -4 -4 -4 -5 -1 -1 -1 -2 -1 -4 -5 -1 -1 1 -2 -1 2 2 7 -6 -7 -3 -1 -1 6 1 -8 -5 8 5 6 -10 14 1 8 -12 15 -11
-3 -1 -1 -2 -3 -4 -4 -1 -2 -2 -3 -3 -5 -7 -0 2 -0 -0 -8 1 -1 -1 -1 -3 1 2 1 -14 -4 4 -0 -1 2 -0 2 1 -4 -1 -16 -1 8 11 -14 -17 12 20 4
-1 -1 -1 -3 -3 -3 -3 -4 -2 -4 -2 -2 -3 -4 -3 -1 1 0 1 2 2 1 1 -0 -1 -1 -10 10 5 4 2 3 -2 5 -1 0 -1 -1 -6 14 -0 -52 1 -2 8 1 9
-1 -1 -1 -2 -2 -3 -3 -3 -2 -2 -3 -4 -5 -6 -3 0 -1 -2 -0 0 2 2 2 1 -3 -1 -1 -2 3 -4 -0 -1 0 7 2 0 -5 -3 -8 9 2 13 -1 -24 -15 3 7
-2 -1 -2 -1 -1 -3 -3 -3 -3 -3 -5 -5 -5 -3 -3 -2 1 -3 1 -2 0 1 5 -2 -4 5 -1 -2 3 2 1 3 6 8 11 11 -1 -5 5 8 -15 9 -1 21 20 -13 6
-1 -1 -1 -2 -2 -2 -3 -2 -2 -3 -4 -3 -4 -5 -3 -5 -2 0 0 -0 -0 -0 1 -1 3 3 2 -1 0 3 3 3 5 6 -2 16 13 -10 4 11 4 1 -2 -8 -4 -10 -1
-1 0 -0 -1 -2 -2 -3 -3 -4 -3 -1 -3 -2 -2 -4 -1 -9 -1 0 1 -1 0 -0 -1 7 -2 6 6 3 -0 -1 -6 5 12 14 5 12 3 -1 -2 9 15 9 11 -3 -18 -7
-2 -1 -1 -1 -1 -2 -3 -3 -4 -3 -4 -0 0 -2 -4 5 -6 -9 -4 -0 1 0 -2 -0 2 7 5 9 0 -1 3 4 -4 2 11 27 5 11 2 6 -11 25 4 8 3 5 -4
Height
5755 5751 5747 5743 5739 5735 5731 5727 5722 5718 5713 5709 5705 5701 5699 5696 5696 5694 5693 5694 5695 5697 5701 5705 5708 5711 5714 5719 5723 5727 5730 5734 5739 5743 5748 5752 5755 5759 5763 5766 5768 5770 5774 5776 5779 5780 5787
5749 5745 5741 5736 5732 5727 5722 5718 5714 5710 5704 5698 5693 5687 5683 5682 5681 5680 5679 5680 5682 5685 5689 5693 5697 5700 5705 5711 5714 5718 5722 5726 5731 5735 5740 5745 5749 5753 5755 5759 5763 5766 5768 5770 5772 5776 5780
5743 5739 5734 5730 5725 5720 5715 5709 5704 5699 5693 5686 5680 5674 5670 5667 5666 5664 5665 5666 5668 5671 5676 5680 5684 5689 5695 5700 5705 5709 5714 5718 5724 5728 5733 5737 5741 5745 5751 5754 5758 5761 5763 5765 5768 5770 5773
5737 5732 5727 5722 5718 5712 5706 5700 5695 5688 5681 5673 5666 5660 5656 5652 5651 5650 5651 5653 5655 5658 5662 5667 5672 5677 5685 5689 5695 5700 5705 5711 5715 5720 5724 5729 5734 5739 5742 5747 5751 5757 5758 5761 5764 5766 5767
5731 5726 5721 5716 5711 5705 5698 5692 5684 5677 5668 5660 5653 5647 5642 5639 5637 5636 5637 5639 5642 5646 5649 5654 5660 5665 5672 5680 5684 5689 5695 5701 5706 5711 5716 5722 5727 5732 5736 5740 5746 5749 5753 5758 5760 5762 5764
5725 5719 5714 5709 5703 5697 5689 5682 5674 5665 5655 5647 5640 5634 5629 5626 5624 5623 5624 5626 5629 5633 5637 5641 5647 5655 5662 5668 5673 5680 5686 5691 5698 5703 5709 5714 5718 5723 5727 5732 5737 5744 5749 5754 5755 5759 5760
5719 5714 5708 5701 5695 5687 5680 5672 5663 5653 5644 5634 5624 5617 5613 5613 5611 5611 5612 5614 5619 5621 5626 5630 5637 5642 5649 5658 5664 5670 5676 5682 5687 5694 5700 5706 5711 5716 5723 5727 5735 5739 5745 5751 5755 5750 5757
5712 5706 5700 5693 5686 5678 5671 5662 5652 5641 5630 5618 5609 5602 5597 5598 5599 5599 5600 5602 5605 5610 5616 5619 5625 5632 5638 5645 5652 5658 5665 5672 5678 5686 5691 5697 5702 5710 5715 5720 5727 5731 5736 5742 5753 5747 5752
5705 5699 5692 5684 5677 5669 5661 5651 5640 5629 5616 5604 5596 5589 5586 5586 5587 5588 5590 5593 5595 5599 5605 5609 5615 5621 5628 5636 5642 5649 5656 5664 5670 5676 5682 5689 5698 5702 5707 5712 5718 5723 5728 5735 5743 5737 5746
5698 5692 5684 5676 5668 5660 5650 5640 5629 5617 5603 5592 5585 5580 5577 5576 5579 5578 5580 5583 5587 5591 5595 5601 5605 5611 5619 5626 5633 5640 5648 5656 5660 5668 5674 5680 5687 5692 5698 5704 5711 5715 5721 5727 5732 5729 5738
5690 5684 5676 5668 5660 5651 5641 5630 5619 5607 5594 5583 5577 5573 5570 5568 5568 5570 5573 5575 5578 5583 5587 5592 5596 5604 5610 5618 5623 5630 5638 5644 5651 5658 5665 5673 5677 5684 5689 5697 5702 5710 5713 5719 5724 5726 5732
5683 5676 5669 5660 5652 5643 5633 5622 5611 5598 5587 5578 5573 5569 5566 5564 5563 5563 5564 5567 5571 5577 5579 5583 5587 5593 5601 5608 5615 5620 5627 5635 5643 5649 5655 5663 5669 5676 5685 5689 5696 5703 5705 5711 5715 5719 5720
5676 5669 5661 5652 5644 5636 5625 5615 5604 5592 5582 5575 5570 5566 5563 5560 5559 5559 5559 5561 5565 5567 5572 5574 5579 5585 5592 5599 5605 5612 5620 5625 5632 5639 5647 5653 5659 5666 5673 5679 5685 5691 5695 5702 5705 5706 5710
5669 5662 5654 5645 5637 5629 5619 5609 5599 5588 5580 5574 5568 5564 5560 5557 5556 5555 5555 5557 5558 5561 5562 5567 5571 5578 5584 5589 5597 5604 5610 5617 5625 5634 5640 5644 5650 5659 5664 5671 5678 5683 5688 5694 5697 5702 5707
5663 5655 5647 5639 5631 5623 5613 5604 5595 5585 5578 5572 5567 5562 5558 5554 5552 5551 5552 5553 5552 5553 5557 5560 5566 5571 5577 5582 5590 5596 5603 5610 5617 5624 5631 5638 5645 5650 5656 5664 5668 5676 5679 5694 5696 5701 5706
5656 5649 5641 5632 5625 5617 5608 5599 5590 5583 5576 5571 5566 5560 5556 5552 5550 5548 5548 5548 5547 5548 5551 5554 5557 5562 5569 5573 5581 5588 5594 5601 5606 5614 5622 5632 5637 5642 5646 5654 5661 5668 5683 5682 5685 5691 5695
5650 5642 5634 5626 5618 5610 5601 5593 5586 5579 5574 5568 5564 5558 5554 5551 5548 5546 5545 5544 5543 5544 5546 5549 5550 5553 5558 5564 5572 5578 5585 5590 5593 5603 5611 5621 5626 5637 5636 5643 5655 5659 5663 5672 5682 5686 5689
5643 5636 5627 5619 5611 5604 5596 5588 5582 5575 5570 5565 5561 5557 5552 5549 5548 5544 5542 5541 5540 5540 5541 5542 5545 5547 5552 5557 5565 5570 5576 5574 5582 5592 5598 5610 5617 5623 5630 5638 5645 5652 5659 5666 5669 5677 5680
5637 5629 5622 5613 5605 5598 5590 5583 5577 5571 5567 5562 5558 5554 5550 5547 5544 5541 5539 5537 5536 5536 5536 5538 5539 5541 5544 5549 5555 5561 5564 5567 5577 5582 5586 5599 5603 5613 5622 5629 5633 5641 5649 5657 5665 5669 5673
5629 5622 5615 5607 5599 5591 5584 5577 5571 5566 5561 5558 5553 5550 5546 5543 5540 5537 5535 5533 5532 5530 5531 5532 5533 5536 5539 5541 5546 5552 5555 5561 5569 5574 5583 5586 5594 5600 5611 5623 5633 5635 5640 5647 5654 5658 5665
5623 5615 5607 5599 5593 5585 5578 5571 5565 5561 5556 5552 5548 5544 5540 5537 5535 5531 5530 5528 5526 5525 5525 5526 5527 5528 5531 5535 5537 5541 5545 5553 5559 5565 5571 5576 5584 5596 5604 5613 5624 5627 5632 5639 5644 5652 5656
5615 5607 5600 5592 5585 5579 5572 5565 5559 5554 5550 5545 5541 5537 5533 5529 5526 5524 5521 5520 5519 5518 5518 5518 5520 5521 5524 5526 5527 5532 5540 5546 5551 5558 5563 5568 5578 5586 5591 5601 5610 5618 5625 5629 5638 5646 5651
5608 5600 5592 5584 5578 5571 5565 5559 5552 5548 5543 5537 5531 5526 5521 5517 5513 5512 5509 5510 5510 5510 5510 5510 5512 5513 5515 5517 5522 5527 5532 5538 5545 5549 5556 5562 5566 5575 5579 5590 5601 5604 5613 5623 5630 5637 5644
5600 5592 5585 5578 5571 5564 5557 5551 5545 5539 5534 5527 5520 5513 5507 5502 5497 5494 5494 5496 5497 5499 5501 5501 5503 5505 5508 5512 5516 5520 5526 5531 5537 5543 5548 5553 5559 5567 5575 5582 5582 5595 5605 5614 5623 5628 5635
5592 5585 5577 5570 5563 5555 5549 5543 5537 5530 5523 5515 5506 5499 5493 5487 5483 5481 5480 5480 5482 5485 5489 5491 5494 5498 5500 5504 5509 5512 5519 5524 5532 5537 5542 5546 5551 5559 5566 5571 5580 5589 5594 5603 5610 5618 5626
5585 5577 5569 5562 5555 5548 5542 5535 5528 5520 5511 5502 5494 5487 5481 5477 5474 5471 5470 5468 5469 5472 5476 5479 5484 5490 5493 5497 5501 5506 5512 5520 5526 5529 5533 5539 5545 5551 5560 5564 5570 5585 5591 5598 5604 5605 5616
5577 5569 5562 5555 5548 5541 5534 5527 5519 5511 5501 5492 5485 5479 5474 5470 5466 5464 5462 5461 5460 5461 5464 5469 5475 5481 5485 5489 5494 5500 5506 5512 5518 5523 5529 5533 5537 5543 5551 5557 5566 5567 5577 5584 5590 5603 5607
5569 5562 5555 5548 5541 5534 5527 5519 5511 5502 5493 5485 5480 5475 5471 5466 5461 5460 5457 5455 5454 5454 5456 5461 5468 5470 5478 5482 5487 5491 5496 5502 5510 5517 5521 5526 5530 5536 5545 5551 5557 5560 5566 5572 5579 5587 5596
5562 5555 5548 5542 5535 5527 5520 5511 5503 5494 5486 5481 5476 5472 5469 5464 5460 5457 5454 5452 5451 5450 5451 5454 5459 5464 5468 5474 5477 5482 5488 5495 5500 5507 5512 5518 5521 5529 5538 5545 5549 5553 5558 5564 5572 5580 5588